Regional Weather Roundup
Issued by NWS Charleston, SC

Current Version | Previous Version | Graphics & Text | Print | Product List | Glossary On
Versions: 1 2 3 4 5 6 7 8 9 10 11 12 13 14 15 16 17 18 19 20 21 22 23 24 25 26 27 28 29 30 31 32 33 34 35 36 37 38 39 40 41 42 43 44 45 46 47 48 49 50
000 ASUS42 KCHS 050812 RWRCHS REGIONAL WEATHER ROUNDUP NATIONAL WEATHER SERVICE CHARLESTON SC 300 AM EST MON DEC 05 2016 NOTE: "FAIR" INDICATES FEW OR NO CLOUDS BELOW 12,000 FEET WITH NO SIGNIFICANT WEATHER AND/OR OBSTRUCTIONS TO VISIBILITY. NOT ALL STATIONS ARE QUALITY CONTROLLED. USE DATA WITH CAUTION... ESPECIALLY DEWPOINT OBSERVATIONS. SCZ027-030-031-034>040-042>050-050900- ...SOUTHEAST SOUTH CAROLINA... CITY SKY/WX TMP DP RH WIND PRES REMARKS N CHARLESTON LGT RAIN 64 61 90 W6 29.96S WATERFRONT PRK N/A 68 66 93 SW8 29.95F MOUNT PLEASANT NOT AVBL JOHNS ISLAND LGT RAIN 68 66 94 S10 29.97R PINOPOLIS N/A 52 52 100 NW7 29.89 MONCKS CORNER LGT RAIN 50 50 100 CALM 29.97F SUMMERVILLE RAIN 52 52 100 CALM 29.99R BEAUFORT MCAS LGT RAIN 68 64 87 S8G17 29.97S BEAUFORT ARPT CLOUDY 68 64 88 SW9G17 29.97S HILTON HEAD IS CLOUDY 68 66 94 S15G22 29.99S WALTERBORO RAIN 52 N/A N/A NW3 30.00R ALLENDALE CLOUDY 48 48 100 CALM 29.99S FOG ...SOUTHERN MIDLANDS AND PEE DEE... CITY SKY/WX TMP DP RH WIND PRES REMARKS GEORGETOWN RAIN 66 64 94 SW12 29.96S KINGSTREE RAIN 46 45 93 NW5 29.98F ORANGEBURG LGT RAIN 47 45 93 CALM 30.00S BARNWELL NOT AVBL AIKEN DRIZZLE 43 43 100 N3 30.03F MANNING NOT AVBL COLUMBIA LGT RAIN 46 43 89 CALM 30.00F SUMTER LGT RAIN 45 43 93 N7 29.97F FLORENCE HVY RAIN 46 45 96 NW9G17 30.00R FOG MYRTLE BEACH MOCLDY 66 63 88 S13 29.96F N MYRTLE BEACH LGT RAIN 64 62 93 S13 29.93F $$ GAZ063-065-086>088-099>101-113>116-118-119-134>141-150-050900- ...SOUTHEAST GEORGIA... CITY SKY/WX TMP DP RH WIND PRES REMARKS SAVANNAH ARPT CLOUDY 68 63 84 S7 29.97F HUNTER AAF MOCLDY 70 67 92 S7 29.95S FORT STEWART DRIZZLE 68 63 83 CALM 29.95F STATESBORO CLOUDY 53 53 100 N3 29.99S SYLVANIA CLOUDY N/A N/A N/A N5 30.00S FOG CLAXTON LGT RAIN N/A N/A N/A CALM 29.98F ...CSRA...CENTRAL AND FAR SOUTHEAST GEORGIA... CITY SKY/WX TMP DP RH WIND PRES REMARKS THOMSON CLOUDY 46 46 100 CALM 30.03F AUGUSTA-BUSH CLOUDY 48 45 89 N5 30.01F AUGUSTA-DANIEL LGT RAIN 46 43 89 N5 30.00F SWAINSBORO CLOUDY 48 46 93 CALM 30.01S VIDALIA LGT RAIN 54 54 100 N6 29.99S EASTMAN LGT RAIN 51 51 100 NE6 30.02F HAZLEHURST RAIN 62 62 100 N7 29.97S ALMA MOCLDY 64 64 100 CALM 29.97S WAYCROSS CLOUDY 68 67 98 S3 29.98S JESUP CLOUDY 68 66 94 CALM 29.98F BAXLEY LGT RAIN 63 63 100 CALM 29.98R BRUNSWICK CLOUDY 70 66 88 S12G18 29.99F SAINT SIMONS MOCLDY 69 63 81 S7 29.99F $$ SCZ027-028-034-036>038-045-046-048>050-GAZ119-141-050900- ...LAKE AND SUPPLEMENTAL COASTAL OBSERVATIONS... STATION/POSITION TIME TEMP WIND PRES WAVE SWELL AIR SEA DIR/SP/G HT/PER HT/PER/DIR (UTC) (F) (DEG/KT/KT) (MB) (FT/S) (FT/S/D) WINYAH BAY 0645 67 190/ 10 1014.0 LAKE MURRAY 0720 44 20/ 2/ 5 1015.6F ACE BASIN NERRS 0645 68 180/ 1 1015.0 FORT PULASKI 0736 67 61 210/ 10/ 15 1015.1F SAPELO ISLAND 0700 67 200/ 8 1016.0 $$ ANZ835-935-AMZ111-154-330-350-352-354-370-450-454-472-050900- ...C-MAN AND BUOY OBSERVATIONS... STATION/POSITION TIME TEMP WIND PRES WAVE SWELL AIR SEA DIR/SP/G HT/PER HT/PER/DIR (UTC) (F) (DEG/KT/KT) (MB) (FT/S) (FT/S/D) BUOY 41004 0750 74 74 190/ 23/ 29 1013.8F 7/ 6 2/150/11 BUOY 41008 0750 68 65 190/ 14/ 16 1015.1S 4/ 6 2/ 70/ 8 FOLLY BEACH CMAN 0800 65 220/ 9/ 12 1015.2S CAPERS NEARSHORE 0708 67 62 200/ 12/ 16 1014.3F FRIPP NEARSHORE 0708 65 62 220/ 8/ 12 1014.8F STATION/POSITION TIME TEMP WIND PRES WAVE SWELL AIR SEA DIR/SP/G HT/PER HT/PER/DIR (UTC) (F) (DEG/KT/KT) (MB) (FT/S) (FT/S/D) 5E ST. MARYS GA 0800 65 N/A 3/ 5 FRYING PAN BUOY 0750 73 74 180/ 23/ 31 1014.5F 7/ 6 2/130/10 BUOY 41025 0750 67 74 180/ 21/ 27 1015.4F 4/ 8 3/ 50/ 8 CAPE LOOKOUT NC 0800 63 210/ 9/ 11 1014.9F BUOY 41002 0750 69 73 170/ 16/ 19 1018.7F 4/10 3/ 10/10 BUOY 41010 NOT AVBL ST AUGUSTINE FL 0800 70 68 190/ 11/ 14 1016.4F $$

USA.gov is the U.S. government's official web portal to all federal, state and local government web resources and services.